Weather in Nikolaevka

Ukraine / Odesa District     45°54′25″N   30°13′03″E
temp.,
°C
wind,
m/s
gust,
m/s
humid.,
%
clouds,
%
prec.,
mm/h
press.,
hPa
HPBL,
m
7 may, fri
fri700:00+11nne228915 0.0 101516
03:00+11ene338696 0.0 101527
06:00+11ese228695 0.0 101523
09:00+15se5672100 0.0 1015443
12:00+17sse6970100 0.0 1015682
15:00+17sse8116589 0.0 1013592
18:00+15sse81376100 0.0 1011446
21:00+14s81783100 0.4 1010474
8 may, sat
sat800:00+14s81687100 0.8 1010398
03:00+14ssw7148992 1.6 1009356
06:00+13w4996100 1.4 1010323
09:00+15nnw81080100 1.7 1012767
12:00+12nnw91276100 0.1 1015744
15:00+12nnw61067100 0.9 1015984
18:00+14nnw61050100 0.0 10161189
21:00+11nnw51056100 0.0 1019375
9 may, sun
sun900:00+8nnw612610 0.0 1021358
03:00+6nnw49740 0.0 1023266
06:00+5nnw410790 0.0 1025230
09:00+10nnw69591 0.0 10261008
12:00+13n68420 0.0 10261542
15:00+16n46375 0.0 10272231
18:00+15se223929 0.0 1027924
21:00+10ssw346298 0.0 102852
10 may, mon
mon1000:00+9wsw4568100 0.0 102895
03:00+7wnw34700 0.0 102851
06:00+7nnw33720 0.0 102836
09:00+13ne33530 0.0 1028437
12:00+16e33442 0.0 10281392
15:00+16se43495 0.0 10261050
18:00+15ssw33494 0.0 1024518
21:00+11wsw33625 0.0 102426
11 may, tue
tue1100:00+9nw45624 0.0 102467
03:00+9nnw45685 0.0 102358
06:00+8nnw486919 0.0 1022137
09:00+14nnw7105438 0.0 1020537
12:00+18n675296 0.0 1020971
15:00+21n675090 0.0 10171268
18:00+22n575468 0.0 10151148
21:00+14ene8128886 0.9 1016412